Retour au catalogue

DELTA 1 DEB

YO

ActifHEO
NORAD 28145·DEBRIS·🇺🇸 United States

Lancé Mar 10, 1977 depuis Cape Canaveral Space Force Station

Loading…

Prochains Passages (prochaines 24 heures)

TLE

FraisSource: Space-Track

Époque: Sep 14, 2026, 02:02 UTC

1 28145U 77018F   26257.08483032  .00005329  00000-0  12172-2 0  9997
2 28145  24.4512 203.2994 4796460  31.3278 349.9800  5.92930481460070

Suivez DELTA 1 DEB en temps réel avec AllMySat

Download on the App Store